Location: Sommers-Bausch Observatory
(40.0037°N, 105.2635°W)
Time: 16:19:12
(UTC-07:00)

Daily predictions for brighter satellites

Satellite Brightness Start Highest point End
(mag) Time Altitude Azimuth Time Altitude Azimuth Time Altitude Azimuth
NOSS 3-3 (A) 4.1 17:20:18 10° SSW 17:26:20 89° NW 17:32:58 10° NE
NOSS 3-3 (C) 4.1 17:20:24 10° SSW 17:26:26 89° WNW 17:33:04 10° NE
CSL-04 Debris 4.2 17:22:39 10° SSE 17:28:04 78° ENE 17:33:33 10° N
KORONAS-FOTON 3.8 17:25:34 10° S 17:29:19 67° E 17:33:05 10° NNE
Cosmos 2181 Rocket 4.3 17:23:10 10° SSE 17:29:23 53° E 17:35:36 10° NNE
Cosmos 1726 2.3 17:30:04 10° N 17:33:39 49° E 17:37:11 10° SSE
SL-16 R/B 4.5 17:30:42 10° W 17:34:43 19° NW 17:38:44 10° N
IRS-1A Rocket 4.4 17:29:26 10° SE 17:34:46 52° ENE 17:40:12 10° N
Meteor 1-21 Rocket 4.4 17:29:30 10° S 17:35:18 65° E 17:41:10 10° NNE
Meteor 2-21 4.4 17:30:28 10° N 17:36:35 78° E 17:42:37 10° S
METEOR-M 4.2 17:35:00 10° SSE 17:40:13 56° ENE 17:45:27 10° N
Cosmos 2221 2.5 17:39:48 10° N 17:44:09 66° E 17:48:30 10° SSE
Cosmos 1400 Rocket 2.9 17:40:34 10° S 17:44:32 63° E 17:48:36 10° NNE
Cosmos 1943 3.5 17:41:39 10° SSW 17:47:16 74° WNW 17:52:55 10° NNE
Ariane Rocket 3.3 17:44:29 10° S 17:49:32 72° WSW 17:54:37 10° NNW
SL-8 Rocket 4.0 17:44:37 10° N 17:50:43 57° E 17:56:49 10° SSE
Cosmos 2218 Rocket 4.1 17:47:49 10° N 17:53:48 50° ENE 17:59:43 10° SSE
MOS 1 4.4 17:49:52 10° SE 17:55:18 52° ENE 18:00:46 10° N
Meteor 2-10 3.9 17:50:31 10° N 17:55:33 76° ENE 18:00:41 10° SSE
Cosmos 1408 Rocket 4.3 17:52:31 10° SSE 17:56:17 30° E 18:00:03 10° NNE
SPOT 3 Rocket 3.9 17:54:48 10° SE 17:59:36 42° ENE 18:04:28 10° N
EO 1 Del DPAF 3.8 17:56:41 10° NNE 18:00:15 36° E 18:03:48 10° SSE
ALOS 2.3 17:57:04 10° SSE 18:01:36 54° ENE 18:06:10 10° N
COSMO-SKYMED 1 2.5 17:58:33 10° NNE 18:02:54 70° ESE 18:07:12 10° S
Cosmos 2058 4.4 18:00:20 10° SE 18:02:57 16° E 18:03:30 16° ENE
Cosmos 2228 Rocket 4.3 18:05:21 10° NNE 18:08:47 21° ENE 18:12:13 10° ESE
Landsat 4 3.6 18:07:19 10° NNE 18:11:04 72° ESE 18:14:46 10° S
Cosmos 2151 4.3 18:08:10 10° SE 18:11:12 19° E 18:11:34 19° E
Cosmos 1703 4.3 18:08:28 10° SE 18:11:42 24° E 18:13:13 19° NE
Cosmos 1777 Rocket 4.4 18:08:20 10° N 18:13:15 39° ENE 18:18:08 10° SE
Cosmos 1076 Rocket 3.8 18:11:57 10° SSW 18:16:17 72° W 18:20:40 10° N
Cosmos 1626 2.4 18:14:24 10° SSE 18:17:57 45° E 18:21:05 13° NNE
Cosmos 1743 Rocket 4.4 18:18:41 10° SSE 18:22:25 28° E 18:23:42 24° ENE
Meteor 2-8 Rocket 4.4 18:16:57 10° S 18:23:04 81° E 18:29:15 10° N
CZ-4 R/B 3.4 18:21:01 10° SSW 18:24:49 33° W 18:28:42 10° NNW
Cosmos 1300 3.2 18:22:33 10° NNW 18:26:20 61° W 18:30:06 10° S
GEOS 3 Rocket 4.2 18:23:24 19° E 18:26:31 36° NE 18:31:24 10° NNW
SL-14 R/B 4.1 18:22:50 10° SSW 18:26:45 54° W 18:30:38 10° N
Cosmos 2369 Rocket 3.8 18:22:24 10° NW 18:27:34 37° WSW 18:32:43 10° S
Cosmos 1328 Rocket 3.8 18:25:40 10° N 18:29:51 42° ENE 18:33:58 10° SSE
Cosmos 2366 rocket 4.0 18:25:58 10° N 18:32:15 90° W 18:38:25 10° S
ERS-2 2.0 18:31:31 10° SSE 18:35:10 74° ENE 18:38:52 10° N
Cosmos 1656 Rocket 3.5 18:31:50 10° NNW 18:37:19 72° ENE 18:42:50 10° SSE
Cosmos 2098 Rocket 3.8 18:32:23 10° N 18:37:29 57° E 18:43:49 10° SSE
Cosmos 1821 Rocket 4.5 18:33:07 10° N 18:38:40 34° ENE 18:44:14 10° SE
Cosmos 968 Rocket 4.5 18:33:47 10° NNW 18:38:44 49° WSW 18:43:37 10° S
Cosmos 1766 Rocket 3.8 18:36:43 10° SSW 18:41:02 69° W 18:45:21 10° N
Cosmos 371 Rocket 4.0 18:37:51 10° SSE 18:41:51 32° ESE 18:41:51 32° ESE
Cosmos 1943 Rocket 3.5 18:37:10 10° NW 18:42:23 42° WSW 18:47:34 10° S
NOAA 12 4.3 18:37:24 10° S 18:42:36 70° WSW 18:47:51 10° NNW
ATLAS 2AS CENTAUR R/B 4.4 18:41:18 10° NW 18:48:17 37° WSW 18:54:46 10° S
Nadezhda 3 Rocket 4.0 18:42:16 10° S 18:48:26 60° E 18:54:41 10° NNE
Cosmos 44 3.1 18:44:43 10° SW 18:49:00 72° WNW 18:51:06 30° NNE
Cosmos 1315 Rocket 4.0 18:46:55 10° SSW 18:50:39 41° WNW 18:54:24 10° N
Cosmos 1346 Rocket 2.6 18:50:49 10° N 18:54:45 87° W 18:58:38 10° S
ASTRO E2 4.5 18:53:19 10° SW 18:56:20 21° S 18:56:43 20° SSE
Meteor 1-27 4.2 18:53:55 10° N 18:59:39 88° E 19:05:26 10° S
Meteor 1-11 4.4 18:56:07 10° SSW 19:01:41 74° W 19:07:20 10° N
OAO 3 Rocket 3.9 18:59:23 10° WSW 19:03:50 44° S 19:04:51 38° SSE
Tiangong 1 3.4 19:01:27 10° WNW 19:02:11 17° WNW 19:02:11 17° WNW
SL-24 R/B - RUBIN 2 3.7 19:00:48 10° NW 19:05:16 69° WSW 19:07:15 30° SSE
H-2A R/B 3.3 19:03:54 10° S 19:07:37 57° W 19:11:25 10° NNW
Cosmos 1151 Rocket 4.3 19:06:25 10° N 19:17:08 - S 19:08:36 29° N
NOSS 3-4 (A) 3.8 19:04:14 10° NW 19:11:21 85° WSW 19:18:59 10° SSE
NOSS 3-4 (C) 3.8 19:04:20 10° NW 19:11:28 85° WSW 19:19:06 10° SSE
COSMOS 2406 3.1 19:08:24 10° SSW 19:14:08 85° ESE 19:15:55 47° NNE
Cosmos 44 Rocket 3.8 19:10:21 10° SW 19:14:54 53° NW 19:16:17 39° N
Cosmos 1934 Rocket 4.4 19:14:07 10° N 19:18:45 44° NE 19:18:45 44° NE
Thor Agena Rocket 3.5 19:19:44 48° NNE 19:21:15 89° W 19:26:29 10° SSW
Lacrosse 5 4.3 19:23:18 10° S 19:23:31 11° S 19:23:31 11° S
Cosmos 1515 Rocket 4.4 19:29:31 10° NNW 19:37:31 12° SSW 19:37:55 10° SSW
Cosmos 2239 Rocket 4.3 19:28:52 10° N 19:35:02 87° W 19:41:11 10° S
Cosmos 332 Rocket 4.2 19:31:06 10° SSW 19:35:41 63° W 19:35:41 63° W
Cosmos 2058 4.4 19:35:43 10° SW 19:39:33 35° WNW 19:39:49 35° WNW
Cosmos 909 Rocket 4.0 19:44:29 10° NNW 19:51:12 79° WSW 19:51:12 79° WSW
